Regional Weather Roundup
Issued by NWS

Home | Current Version | Previous Version | Text Only | Print | Product List | Glossary On
Versions: 1 2 3 4 5 6 7 8 9 10 11 12 13 14 15 16 17 18 19 20 21 22 23 24 25 26 27 28 29 30 31 32 33 34 35 36 37 38 39 40 41 42 43 44 45 46 47 48 49 50
000
ASUS43 KMKX 281521
RWRWI

WISCONSIN REGIONAL WEATHER ROUNDUP
NATIONAL WEATHER SERVICE MILWAUKEE/SULLIVAN WI
900 AM CST TUE FEB 28 2017

NOTE: "FAIR" INDICATES FEW OR NO CLOUDS BELOW 12,000 FEET WITH NO
SIGNIFICANT WEATHER AND/OR OBSTRUCTIONS TO VISIBILITY.

WIZ001-002-006>008-014>016-023>028-281600-
NORTHWEST WISCONSIN

CITY           SKY/WX    TMP DP  RH WIND       PRES   REMARKS
SUPERIOR ARPT  MIX PCPN  32  32  99 NE7       29.82S WCI  26
ASHLAND        LGT SNOW  32  30  92 CALM      29.82R VSB 3/4
HAYWARD        LGT RAIN  35  32  88 NE5       29.77S WCI  31
SIREN          LGT SNOW  34  29  83 NE5       29.77S WCI  30
CUMBERLAND     CLOUDY    34  30  86 E8        29.74S WCI  27
RICE LAKE      CLOUDY    37  33  88 CALM      29.76S
CHETEK         CLOUDY    37  33  86 CALM      29.75S
LADYSMITH      CLOUDY    36  34  93 N6        29.76S WCI  31
EAU CLAIRE     CLOUDY    39  33  79 N7        29.72S WCI  34
MENOMONIE      CLOUDY    37  32  81 N7        29.73S WCI  32
NEW RICHMOND   CLOUDY    38  31  74 E7        29.73F WCI  33
OSCEOLA        CLOUDY    39  31  72 NE8       29.76S WCI  34
$$

WIZ003>005-009-010-017-018-281600-
NORTH CENTRAL WISCONSIN

CITY           SKY/WX    TMP DP  RH WIND       PRES   REMARKS
MANITOWISH WTR DRIZZLE   33  33 100 CALM      29.76F
ARBOR VITAE    CLOUDY    37  34  90 SE5         N/A  FOG     WCI  33
WOODRUFF       CLOUDY    37  34  90 SE5         N/A  FOG     WCI  33
RHINELANDER    CLOUDY    36  33  89 E3        29.75F FOG
EAGLE RIVER    CLOUDY    35  33  94 SE3       29.75F FOG
LAND O LAKES   CLOUDY    36  33  88 CALM      29.78F
PHILLIPS       DRIZZLE   33  33  99 CALM      29.73F
TOMAHAWK       CLOUDY    37  33  85 CALM      29.74F FOG
MEDFORD        CLOUDY    36  34  94 E6        29.73S FOG     WCI  31
MERRILL        NOT AVBL
$$

WIZ029-030-035-036-043>047-281600-
CENTRAL WISCONSIN

CITY           SKY/WX    TMP DP  RH WIND       PRES   REMARKS
WAUSAU         CLOUDY    37  36  96 E8        29.72F FOG     WCI  31
MOSINEE        CLOUDY    37  37 100 SE8       29.76F FOG     WCI  31
MARSHFIELD     FOG       38  37  97 E6        29.72F VSB<1/4 WCI  33
STEVENS POINT  DRZL/FOG  36  36 100 E5        29.75F VSB 1/2 WCI  32
WAUPACA        FOG       40  39  96 NE3       29.76F VSB 1/4
WAUTOMA        FOG       38  38 100 CALM      29.76F VSB<1/4
WISC RAPIDS    FOG       38  38 100 E6        29.74F VSB 1/4 WCI  33
CAMP DOUGLAS   FOG       37  37 100 E7        29.70F VSB 0   WCI  32
$$

WIZ011>013-019>022-031-037>040-048>050-281600-
NORTHEAST WISCONSIN

CITY           SKY/WX    TMP DP  RH WIND       PRES   REMARKS
ANTIGO         FOG       35  35 100 SE6       29.75F VSB 1/4 WCI  30
SHAWANO        FOG       38  37  94 E5        29.77F VSB 1/4 WCI  35
OCONTO         CLOUDY    37  36  98 CALM      29.79F
STURGEON BAY   CLOUDY    39  37  93 SE8       29.80F FOG     WCI  34
GREEN BAY      CLOUDY    40  40 100 SE6       29.76F FOG
MANITOWOC      LGT RAIN  39  38  96 S9        29.79F VSB 1/4 WCI  33
APPLETON       FOG       37  37 100 SE8       29.73F VSB 1/4 WCI  31
CLINTONVILLE   FOG       37  36  93 NE6       29.77F VSB 1/4 WCI  33
OSHKOSH        FOG       39  38  96 SE7       29.74F VSB 1/4 WCI  34
$$

WIZ032>034-041-042-053>061-281600-
SOUTHWEST WISCONSIN

CITY           SKY/WX    TMP DP  RH WIND       PRES   REMARKS
LA CROSSE      CLOUDY    43  40  89 SE6       29.69F FOG
SPARTA         CLOUDY    39  38  99 CALM      29.73S FOG
VIROQUA        CLOUDY    38  38 100 E7        29.69R VSB<1/4 WCI  33
BOSCOBEL       LGT RAIN  43  41  93 VRB3      29.69F VSB 1
PRAIRIE DU CHI RAIN      39  38  97 NW6       29.68F VSB 1   WCI  35
PLATTEVILLE    CLOUDY    46  46 100 SE10      29.67F
$$

WIZ056-057-062-063-064-067-068-281600-
SOUTH CENTRAL WISCONSIN

CITY           SKY/WX    TMP DP  RH WIND       PRES   REMARKS
REEDSBURG      LGT RAIN  39  39 100 E3        29.69F VSB 1/4
BARABOO/DELLS  LGT RAIN  39  38  98 E7        29.70F VSB<1/4 WCI  34
LONE ROCK      CLOUDY    46  44  93 SE6       29.70F FOG
MINERAL POINT  CLOUDY    46  46 100 SE8       29.68F FOG
MADISON        CLOUDY    47  46  97 S7        29.70F THUNDER FOG
MIDDLETON      CLOUDY    46  46 100 E3        29.72F
WATERTOWN      CLOUDY    45  45 100 SE6       29.74F FOG
MONROE         CLOUDY    46  46 100 S10       29.71F FOG
JANESVILLE     CLOUDY    50  48  93 S7        29.74F FOG
$$

WIZ051-052-058>065-066-070>072-281600-
SOUTHEAST WISCONSIN

CITY           SKY/WX    TMP DP  RH WIND       PRES   REMARKS
MILWAUKEE      CLOUDY    48  45  89 S7        29.76F FOG
WAUKESHA       CLOUDY    43  43 100 SE7       29.78F FOG
MILWAUKEE/TIMM CLOUDY    43  39  87 CALM      29.79F FOG
RACINE         CLOUDY    44  41  89 S10       29.80F FOG
KENOSHA        CLOUDY    48  45  89 SE6       29.78F FOG
FOND DU LAC    CLOUDY    40  37  89 S7        29.76F FOG
SHEBOYGAN      LGT RAIN  39  38  96 S8        29.77F VSB 3/4 WCI  33
WEST BEND      FOG       41  41 100 S5        29.78S VSB 3/4
JUNEAU         CLOUDY    42  42  99 SE8       29.76F FOG
$$

LSZ147-162-281600-
LAKE SUPERIOR

STATION/POSITION TIME  TEMP    WIND        PRES    WAVE
                       AIR SEA DIR/SP/G            HT/PER
                 (UTC) (F)     (DEG/KT/KT) (MB)    (FT/S)
DEVILS ISLAND    1500   32      40/ 10/ 11 1010.9R
PORT WING        1440   32      10/  2/  2 1010.2S
SAXON HARBOR     1430   32      CALM  /  1 1009.5F
$$

LMZ867-665-643>646-281600-
LAKE MICHIGAN

STATION/POSITION TIME  TEMP    WIND        PRES    WAVE
                       AIR SEA DIR/SP/G            HT/PER
                 (UTC) (F)     (DEG/KT/KT) (MB)    (FT/S)
CHAMBERS ISLAND  1440   37      CALM  /  2 1009.8F
NORTHPORT PIER   1500   36      CALM  / 15 1010.2
SISTER BAY       1420   39     150/  6/  8   N/A
KEWAUNEE LAKESHO 1454   38     120/  6/  8 1008.7F
SHEBOYGAN LAKESH 1500   38     180/ 11/ 12 1008.7F
PORT WASHINGTON  1430   39     170/  4/  6 1009.8F
MILWAUKEE LAKESH 1500   39     130/  9/ 10   N/A
KENOSHA   LAKESH 1500   39     170/  9/ 11 1008.5
$$

TC  - TEMPERATURE IN CELSIUS
VSB - VISIBILITY IN STATUTE MILES
WCI - WIND CHILL INDEX
HX  - HEAT INDEX




USA.gov is the U.S. government's official web portal to all federal, state and local government web resources and services.